Location: Unspecified
(0.0000°N, 0.0000°E)
Time: 20:44:38
(UTC+00:00)

STARLINK-1022 - Pass Details

Date: 22 January 2020
Orbit: 548 x 551 km, 53.0° (Epoch: 29 September)

Event Time Altitude Azimuth Distance (km) Brightness Sun altitude
Rises 04:40:45 0° 186° (S) 2,656 7.3 -21.2°
Reaches altitude 10° 04:43:38 10° 164° (SSE) 1,779 6.7 -20.6°
Maximum altitude 04:46:11 16° 124° (SE) 1,439 6.7 -20.0°
Drops below altitude 10° 04:48:45 10° 85° (E) 1,795 7.2 -19.4°
Sets 04:51:40 0° 64° (ENE) 2,692 7.8 -18.7°
